sat.trackr.live / text

‹ back to catalog

STARLINK-34465

NORAD 64438 · 2025-130A

PAYLOAD ACTIVE UNKNOWN

§ Identity

Operator
Country
US
Launch date
2025-06-18
Launch site
AFETR
Launch vehicle
Mass (kg)
RCS (m²)

Purposes: comms

External: N2YO · Heavens-Above · Gunter

§ Orbital elements

Epoch: 2026-09-20T23:18:02.691072Z

Period
93.85 min
Inclination
53.1600°
Eccentricity
0.0001061
Mean motion
15.34397463 rev/d
Perigee alt
462.0 km
Apogee alt
463.4 km
Semi-major
6,840.8 km
B*
2.5895e-4
RAAN
257.7841°
Arg perigee
111.0041°
Mean anomaly
249.1075°
Rev number
7,065

§ Raw data

STARLINK-344651 64438U 25130A   26263.97086448  .00008382  00000+0  25895-3 0  99932 64438  53.1600 257.7841 0001061 111.0041 249.1075 15.34397463 70653

JSON: /api/v1/satellites/64438 · /tle

For live sub-satellite position, see the globe view (requires WebGL).

§ Visibility from observer

Set your observer location to see the next 7 days of passes ≥ 10°. The values pass through the URL so the page stays shareable.

No JS? Fill the form by hand. The geolocation button needs JavaScript.